Kuchera_Ratio
0.0 0.0 0.0 0.0 0.0 0.0 0.0 0.0 0.0 0.0 0.0 0.0 0.0 0.0 0.0 0.0 0.0 0.0 0.0 0.0 0.0 0.0 0.0 0.0 0.0 0.0 0.0 0.0 0.0 0.0 0.0 0.0 0.0 0.0 0.0 0.0 0.0 0.0 0.0 0.0 0.0 0.0 0.0 0.0 0.0 0.0 0.0 0.0 0.0 0.0 0.0 0.0 0.0 0.0
0.0 0.0 0.0 0.0 0.0 0.0 0.0 0.0 0.0 0.0 0.0 0.0 0.0 0.0 0.0 0.0 0.0 0.0 0.0 0.0 0.0 0.0 0.0 0.0 0.0 0.0 0.0 0.0 0.0 0.0 0.0 0.0 0.0 0.0 0.0 0.0 0.0 0.0 0.0 0.0 0.0 0.0 0.0 0.0 0.0 0.0 0.0 0.0 0.0 0.0 0.0 0.0 0.0 0.0
0.0 0.0 0.0 0.0 0.0 0.0 0.0 0.0 0.0 0.0 0.0 0.0 0.0 0.0 0.0 0.0 0.0 0.0 0.0 0.0 0.0 0.0 0.0 0.0 0.0 0.0 0.0 0.0 0.0 0.0 0.0 0.0 0.0 0.0 0.0 0.0 0.0 0.0 0.0 0.0 0.0 0.0 0.0 0.0 0.0 0.0 0.0 0.0 0.0 0.0 0.0 0.0 0.0 0.0
0.0 0.0 0.0 0.0 0.0 0.0 0.0 0.0 0.0 0.0 0.0 0.0 0.0 0.0 0.0 0.0 0.0 0.0 0.0 0.0 0.0 0.0 0.7 0.0 0.0 0.0 0.0 0.0 0.0 0.0 0.0 0.0 0.0 0.0 0.0 0.0 0.0 0.0 0.0 0.0 0.0 0.0 0.0 0.0 0.0 0.0 0.0 0.0 0.0 0.0 0.0 0.0 0.0 0.0
0.0 0.0 0.0 0.0 0.0 0.0 0.0 0.0 0.0 0.0 0.0 0.0 0.0 0.0 0.0 0.0 0.0 0.0 0.0 0.0 0.0 0.0 0.0 0.0 0.0 0.0 0.0 0.0 0.0 0.0 0.0 0.0 0.0 0.0 0.0 0.0 0.0 0.0 0.0 0.0 0.0 0.0 0.0 0.0 0.0 0.0 0.0 0.0 0.0 0.0 0.0 0.0 0.0 0.0
0.0 0.0 0.0 0.0 0.0 0.0 0.0 0.0 0.0 0.0 0.0 0.0 0.0 0.0 0.0 0.0 0.0 0.0 0.3 0.0 0.0 0.0 0.0 0.0 0.0 0.0 0.0 0.0 0.0 0.0 0.0 0.0 0.0 0.0 0.0 0.0 0.0 0.0 0.0 0.0 0.0 0.0 0.0 0.0 0.0 0.0 0.0 0.0 0.0 0.0 0.0 0.0 0.0 0.0
0.0 0.0 0.0 0.0 0.0 0.0 0.0 0.0 0.0 0.0 0.0 0.0 0.0 0.0 0.0 0.0 0.0 0.0 0.0 0.0 0.0 0.0 0.0 0.0 0.0 0.0 0.0 0.0 0.0 0.0 0.0 0.0 0.0 0.0 0.0 0.0 0.0 0.0 0.0 0.0 0.0 0.0 0.0 0.0 0.0 0.0 0.0 0.0 0.0 0.0 0.0 0.0 0.0 0.0
0.0 0.0 0.0 0.0 0.0 0.0 0.0 0.0 0.0 0.0 0.0 0.0 0.0 0.0 0.0 0.0 0.0 0.0 0.0 0.0 0.0 0.0 0.0 4.3 3.9 0.0 0.0 0.0 0.3 0.0 0.0 0.0 0.0 0.0 0.0 0.0 0.0 0.0 0.0 0.0 0.0 0.0 0.0 0.0 0.0 0.0 0.0 0.0 0.0 0.0 0.0 0.0 0.0 0.0
0.0 0.0 0.0 0.0 0.0 0.0 0.0 0.0 0.0 0.0 0.0 0.0 0.0 0.0 0.0 0.0 0.0 0.0 0.0 0.0 0.0 0.0 0.0 3.9 6.7 5.3 0.0 0.0 0.0 0.0 0.0 0.0 0.0 0.0 0.0 0.0 0.0 0.0 0.0 0.0 0.0 0.0 0.0 0.0 0.0 0.0 0.0 0.0 0.0 0.0 0.0 0.0 0.0 0.0
0.0 0.0 0.0 0.0 0.0 0.0 0.0 0.0 0.0 0.0 0.0 0.0 0.0 0.0 0.0 0.0 0.0 0.0 0.0 0.0 0.0 0.0 0.0 3.9 0.0 1.9 0.0 0.0 0.0 0.0 0.0 0.0 2.1 0.0 0.0 0.0 0.0 0.0 0.1 0.0 0.0 0.0 0.0 0.0 0.0 0.0 0.0 0.0 0.0 0.0 0.0 0.0 0.0 0.0
0.0 0.0 0.0 0.0 0.0 0.0 0.0 0.0 0.0 0.0 0.0 0.0 0.0 0.0 0.0 0.0 0.0 0.0 5.7 4.9 3.3 5.3 0.0 0.0 0.0 0.0 0.0 0.0 1.7 0.0 4.3 1.5 3.9 0.3 0.0 0.0 1.9 6.1 2.7 1.1 0.0 0.0 0.0 0.0 0.0 0.0 0.0 0.0 0.0 0.0 0.0 0.0 0.0 0.0
0.0 0.0 0.0 0.0 0.0 0.0 0.0 0.0 0.0 0.0 0.0 0.0 0.0 0.0 0.0 0.0 0.9 4.7 6.3 2.9 2.1 0.9 0.0 0.0 0.0 0.0 0.0 0.0 2.5 0.0 2.9 3.9 6.7 2.5 4.3 11.1 7.7 3.5 4.5 4.9 3.3 0.0 0.0 0.0 0.0 0.0 0.0 0.0 0.0 0.0 0.0 0.9 3.8 4.9
0.0 0.0 0.0 0.0 0.0 0.0 0.0 0.0 0.0 0.0 0.0 0.0 0.0 0.0 0.0 2.3 9.3 9.5 11.7 6.7 6.3 4.5 5.1 1.9 0.7 0.0 0.0 0.0 4.7 4.1 5.5 6.7 5.3 7.5 9.9 9.5 5.9 4.1 5.1 4.7 5.3 5.1 5.1 4.5 5.7 5.7 6.0 5.3 6.1 6.7 8.7 7.7 7.7 9.2
0.0 0.0 0.0 0.0 0.0 0.0 0.0 0.0 0.0 0.0 0.0 2.1 4.3 9.5 8.3 10.3 10.9 11.9 11.3 8.5 6.9 6.5 6.1 5.5 3.3 2.9 4.5 6.9 7.7 6.5 7.3 4.3 7.7 10.5 12.9 10.1 9.3 6.7 5.3 5.3 7.1 9.1 8.9 8.9 9.5 9.5 10.3 10.3 10.5 9.5 9.1 8.9 9.7 10.5
0.0 0.0 0.0 0.0 0.0 0.0 0.0 0.0 0.0 0.0 0.0 5.7 2.9 12.8 11.7 8.7 8.5 8.5 7.1 6.5 7.1 6.7 7.1 6.3 5.3 4.5 6.1 7.5 7.1 5.9 8.7 12.9 12.6 13.7 12.3 9.9 8.9 6.5 7.1 7.3 7.7 8.3 8.7 8.5 8.5 9.7 10.1 10.1 10.5 11.1 10.3 10.1 10.9 12.2
0.0 0.0 0.0 0.0 0.0 0.0 0.0 0.0 0.0 0.0 0.0 5.3 11.7 12.9 11.3 10.1 12.6 12.1 11.7 10.5 5.1 6.3 6.9 5.7 6.5 9.5 10.9 9.5 12.3 13.4 12.7 15.5 14.2 12.4 11.1 8.9 8.1 7.9 8.1 8.1 8.5 8.3 8.7 9.1 9.7 10.5 10.9 11.7 11.9 11.9 11.5 12.0 12.5 12.7
0.0 0.0 0.0 0.0 0.0 0.0 0.0 0.0 0.0 4.3 7.3 10.9 13.3 12.6 12.8 13.2 14.0 13.4 12.5 11.7 6.9 7.1 9.3 8.3 13.0 13.9 8.1 13.2 15.2 13.5 15.4 14.1 12.6 12.5 11.3 11.3 11.3 10.1 9.3 9.3 9.7 9.5 9.7 9.7 9.7 9.9 10.3 10.3 10.9 11.9 13.3 13.1 13.0 13.2
0.0 0.0 0.0 0.0 0.0 0.0 0.0 0.0 2.5 7.1 13.7 13.1 13.8 13.8 13.2 13.3 14.0 12.9 12.0 10.9 7.9 9.7 11.3 13.3 8.9 15.3 16.0 16.5 16.7 14.4 12.7 11.3 12.4 12.8 13.3 12.5 12.3 12.1 11.3 12.0 11.9 11.3 11.3 11.1 11.1 11.1 11.3 12.3 12.7 12.9 12.8 12.7 12.9 13.1
0.0 0.0 0.0 0.0 0.0 0.0 0.0 1.5 0.1 13.4 13.7 12.4 12.5 12.3 12.3 13.0 12.1 10.7 8.7 7.3 5.1 3.1 7.3 11.5 15.5 16.8 16.8 14.9 14.8 13.8 12.7 11.7 13.4 13.5 13.5 13.6 13.3 12.7 12.8 13.0 13.2 13.2 13.1 12.9 12.9 13.2 12.8 12.6 12.2 11.5 11.5 11.9 13.0 12.4
0.0 0.0 0.0 0.0 0.0 0.0 4.3 5.1 0.0 5.7 11.7 9.7 6.5 10.1 10.7 12.2 10.1 9.9 9.5 6.1 7.1 10.7 14.9 16.7 17.3 16.3 15.7 14.8 13.9 14.1 13.1 10.1 11.7 14.1 14.9 14.0 13.2 13.6 13.7 13.1 13.0 12.9 13.1 13.5 13.7 13.2 13.1 13.6 13.3 13.5 13.4 13.5 14.3 15.1
0.0 0.0 0.0 0.0 0.0 0.0 0.1 0.9 2.3 2.3 3.1 6.7 3.7 4.9 8.7 7.1 11.9 12.6 12.6 8.9 13.4 14.9 16.4 15.3 15.6 14.7 13.4 13.1 12.5 12.8 13.7 12.9 13.9 13.6 14.3 15.1 13.8 13.3 13.5 13.5 13.4 13.6 14.5 15.0 15.6 16.3 16.1 16.1 15.3 14.6 15.3 15.6 16.0 15.5
0.0 0.0 0.0 0.0 0.0 0.0 1.1 0.0 0.3 0.0 0.7 3.1 4.5 4.1 10.3 12.8 13.3 13.3 10.5 15.1 16.3 15.8 14.6 14.5 14.0 13.6 14.3 14.5 13.5 12.9 13.4 13.5 13.8 13.9 14.3 14.1 15.4 15.3 15.2 14.6 15.1 16.4 16.3 16.4 16.5 17.4 17.4 17.3 15.8 15.8 16.0 15.8 15.5 17.0
0.0 0.0 0.0 0.0 6.1 6.1 9.9 0.0 7.5 3.3 10.5 8.7 5.1 11.7 12.6 12.9 12.1 6.5 15.5 14.9 15.8 13.5 13.0 13.4 13.6 13.1 13.9 13.4 13.0 12.7 12.0 12.3 13.2 13.5 14.0 14.1 14.1 14.4 15.0 15.2 14.9 16.2 16.8 16.3 15.4 16.3 17.6 17.6 17.6 17.1 16.5 16.8 16.6 17.1
0.0 7.3 10.5 9.7 6.5 12.7 6.7 10.1 2.5 6.1 7.1 9.7 12.3 14.7 14.2 13.0 8.9 13.9 17.8 16.9 15.3 13.4 13.7 13.5 12.4 13.5 13.3 13.9 14.7 14.4 13.1 12.6 13.7 13.8 13.2 14.0 15.5 15.9 15.5 16.1 16.1 16.0 15.7 15.5 16.3 17.3 17.6 18.0 18.2 17.7 18.5 18.9 19.4 19.3
8.9 13.7 10.1 12.7 7.1 10.7 12.7 12.9 12.6 10.9 13.8 12.3 14.2 14.7 14.4 9.9 15.4 16.7 17.8 16.8 16.0 16.1 15.2 14.0 13.4 13.4 14.8 14.9 14.7 15.2 14.1 13.5 15.2 16.6 15.5 14.0 14.3 14.2 15.3 16.3 17.6 17.9 17.1 18.0 18.8 18.5 19.1 18.9 19.4 19.5 19.5 20.7 21.9 21.1
13.8 13.8 13.1 12.6 12.4 12.4 12.6 14.5 14.4 14.2 13.6 15.0 15.6 13.5 12.6 14.4 17.5 19.0 17.1 16.1 16.5 16.3 16.3 15.7 15.2 15.3 15.5 14.5 15.6 16.5 16.0 13.6 14.1 17.1 17.7 16.8 17.2 17.4 18.2 19.1 19.1 20.1 18.5 19.1 19.7 20.1 20.2 20.4 20.8 21.1 20.9 20.4 21.7 21.8
15.2 14.6 12.3 6.5 8.1 10.1 12.7 12.2 10.9 13.3 15.4 16.1 14.7 15.8 15.3 19.2 20.0 18.7 16.2 14.6 16.1 15.7 14.8 14.2 14.0 14.9 15.7 16.1 16.0 16.1 16.0 16.6 17.6 17.9 17.3 17.7 18.1 18.3 19.4 21.1 22.5 21.8 19.2 20.2 20.3 20.7 21.2 21.5 21.6 21.7 21.8 21.2 21.4 22.3
13.4 12.9 16.6 14.6 13.9 12.0 15.5 14.8 15.4 16.3 15.7 14.1 13.8 19.8 20.0 19.6 19.3 16.5 15.9 15.5 15.1 14.7 15.3 15.4 15.0 14.8 15.4 16.0 16.0 15.9 16.9 17.6 18.4 17.6 17.3 17.8 18.2 19.2 19.9 19.7 21.3 22.0 21.0 21.7 21.7 21.1 21.2 21.7 22.1 22.3 23.0 23.3 23.3 22.4
14.1 12.6 13.9 16.5 15.9 16.4 17.0 16.1 16.2 16.3 15.7 14.1 16.9 18.9 19.9 18.4 16.4 16.9 16.2 15.5 14.8 15.2 16.8 17.6 17.9 17.0 17.4 17.4 17.8 17.6 17.7 18.0 19.3 22.2 22.7 20.9 20.1 21.0 20.0 20.3 20.4 20.6 20.8 20.9 21.6 22.1 22.2 22.4 22.7 23.5 23.8 23.1 22.5 22.0
15.1 11.7 15.6 16.8 17.4 19.1 18.5 16.3 18.0 17.3 15.8 15.9 16.6 17.9 18.8 18.9 17.7 14.7 15.7 15.8 16.2 17.3 17.4 17.4 17.3 16.7 18.0 17.9 19.3 20.2 19.8 20.1 21.0 21.1 21.4 22.0 22.1 21.3 20.9 21.3 21.5 21.5 21.5 21.8 22.1 21.9 22.7 22.3 22.0 21.9 22.9 23.3 23.0 24.4
12.0 12.3 15.1 15.9 18.4 17.9 17.4 16.6 16.2 16.1 16.6 17.4 16.5 17.7 19.3 19.4 18.4 17.1 16.9 17.0 17.2 17.7 18.1 19.0 19.0 17.8 18.6 19.0 18.6 19.8 20.9 21.1 23.1 22.7 22.1 20.9 20.9 20.8 21.6 22.2 21.6 22.0 21.9 22.5 23.1 23.1 23.9 23.9 23.0 23.5 23.8 24.8 25.3 25.6
14.3 14.8 16.4 18.8 19.0 17.3 15.8 15.4 15.7 16.6 16.4 17.1 18.8 18.2 18.9 18.4 20.1 19.3 17.8 17.1 17.8 18.1 21.8 18.5 18.7 19.6 19.5 20.1 20.6 21.7 24.2 21.2 21.1 22.1 24.1 21.7 21.0 21.5 21.6 21.7 21.9 22.2 22.8 23.7 23.2 23.6 24.1 24.7 24.6 24.5 24.7 25.0 25.6 26.5
14.7 15.0 15.5 16.6 18.3 18.4 16.5 15.5 16.7 18.5 17.2 18.0 18.8 18.5 18.6 18.1 20.8 19.0 18.5 17.4 17.6 17.7 18.3 18.1 18.5 19.4 21.0 21.4 20.8 21.6 22.7 21.0 24.6 25.5 26.0 25.5 26.6 25.0 24.1 22.0 22.4 23.0 23.7 24.1 23.8 23.7 24.5 25.0 25.4 25.6 26.0 26.3 26.4 26.9